www.pogodaiklimat.ru

Погода и климат >> Архив погоды >> Россия >> Ростовская область >> Чертково


АРХИВ ПОГОДЫ в Чертково

Время (UTC), дата Ветер
(напр.,м/с)
 
Видим.   Явления Облачность Т
(С)
Тd
(С)
f
(%)
Тe
(С)
Тes
(С)
Комфортность P
(гПа)
Po
(гПа)
Тmin
(С)
Tmax
(С)
R
(мм)
R24
(мм)
S
(см)
18 17.06 штиль 0 20 км 3/0
[Ci fib]
+21.3 +12.0 55 +23 +23 комфорт 1014.6 997.7
21 17.06 штиль 0 20 км ясно +17.8 +12.3 70 +18 +18 1015.2 998.0
00 18.06 штиль 0 20 км ясно +15.2 +11.7 80 +15 +15 1015.2 997.9
03 18.06 штиль 0 20 км ясно +16.5 +12.1 75 +16 +18 1015.4 998.2 +14.0
06 18.06 штиль 0 20 км ясно +25.7 +11.9 42 +27 +41 жарко 1014.8 998.2
09 18.06 штиль 0 20 км 8/6 600 м
[Cu hum]
+26.8 +10.6 36 +28 +35 жарко 1014.2 997.6
12 18.06 СЗ 1 20 км 9/8 600 м
[Cu hum Ci fib]
+29.3 +10.7 32 +30 +32 жарко 1013.4 996.9
15 18.06 С 1 20 км 3/3 600 м
[Cu hum]
+29.1 +10.7 32 +29 +32 жарко 1012.5 996.0 +29.3
18 18.06 штиль 0 20 км 3/0
[Ci fib]
+22.5 +13.2 56 +25 +25 комфорт 1013.1 996.2
21 18.06 штиль 0 20 км ясно +18.8 +14.0 74 +20 +20 1013.3 996.3
00 19.06 штиль 0 20 км 1/0
[Ci sp]
+16.3 +13.2 82 +16 +16 1013.2 996.0
03 19.06 штиль 0 20 км 6/0
[Ci sp]
+20.0 +14.9 72 +22 +24 комфорт 1013.0 996.1 +15.5
06 19.06 штиль 0 20 км 9/1 600 м
[Cu med, cong Cc]
+27.3 +13.4 42 +29 +40 жарко 1012.5 995.9
09 19.06 СВ 1 20 км 9/6 600 м
[Cb cap Cc]
+28.3 +14.4 43 +31 +38 душно 1012.5 996.0
12 19.06 С 1 20 км 6/6 600 м
[Cu med, cong]
+29.3 +13.4 38 +31 +37 жарко 1011.8 995.4
15 19.06 С 1 20 км 3/3 600 м
[Cu med, cong]
+29.4 +12.3 35 +30 +33 жарко 1011.9 995.5 +30.8
18 19.06 штиль 0 20 км ясно +23.9 +13.4 52 +26 +26 жарко 1013.1 996.3
21 19.06 штиль 0 20 км ясно +20.8 +12.2 58 +23 +23 комфорт 1014.1 997.1
00 20.06 штиль 0 20 км 3/0
[Ci sp]
+20.0 +10.0 53 +21 +21 комфорт 1014.8 997.7
03 20.06 штиль 0 20 км 1/0
[Ci sp]
+21.0 +10.4 51 +23 +24 комфорт 1015.4 998.4 +18.9
06 20.06 СВ 2 20 км ясно +27.0 +10.8 36 +28 +38 жарко 1015.4 998.8
09 20.06 СВ 3 20 км 4/4 600 м
[Cu med, cong]
+29.9 +8.6 26 +29 +38 жарко 1014.6 998.1
12 20.06 В 2 20 км 8/8 600 м
[Cu med, cong]
+29.9 +8.4 26 +29 +32 жарко 1014.1 997.6
15 20.06 СВ 2 20 км 5/5 600 м
[Cu med, cong]
+29.3 +8.1 26 +29 +30 жарко 1013.8 997.3 +31.3
18 20.06 штиль 0 20 км 1/1 600 м
[Cu hum]
+23.4 +9.4 41 +25 +25 комфорт 1014.9 998.1
21 20.06 штиль 0 20 км ясно +21.3 +8.7 44 +22 +22 комфорт 1015.4 998.4
00 21.06 штиль 0 20 км 1/0
[Ci fib]
+18.7 +9.4 55 +19 +19 1016.5 999.4
03 21.06 штиль 0 20 км 8/0
[Ac cast]
+19.5 +10.7 57 +20 +21 1017.4 1000.3 +18.1
06 21.06 В 1 20 км 1/0
[Ci fib]
+28.4 +11.0 34 +29 +41 жарко 1017.3 1000.7
09 21.06 В 3 20 км 6/6 600 м
[Cu hum]
+32.0 +7.7 22 +31 +37 жарко 1016.7 1000.3
12 21.06 В 2 20 км 4/4 600 м
[Cu hum]
+32.6 +7.1 20 +31 +39 жарко 1016.1 999.7
15 21.06 штиль 0 20 км 3/3 600 м
[Cu hum]
+31.8 +7.9 23 +31 +33 жарко 1015.7 999.3 +33.3
18 21.06 штиль 0 20 км 1/0
[Ci fib]
+25.0 +10.5 40 +26 +26 жарко 1016.2 999.4
21 21.06 штиль 0 20 км ясно +20.8 +11.1 54 +22 +22 комфорт 1017.0 1000.0
00 22.06 штиль 0 20 км 1/0
[Ci fib]
+18.0 +9.5 58 +18 +18 1017.8 1000.6
03 22.06 штиль 0 20 км ясно +21.0 +12.6 59 +23 +25 комфорт 1018.3 1001.3 +16.3
06 22.06 В 3 20 км ясно +30.1 +9.6 28 +30 +38 жарко 1018.1 1001.6
09 22.06 В 1 20 км 6/3 600 м
[Cu hum Ci sp]
+32.5 +6.9 20 +31 +44 жарко 1017.6 1001.2
12 22.06 СВ 2 20 км 4/3 600 м
[Cu hum Ci sp]
+33.4 +6.0 18 +31 +40 жарко 1016.8 1000.5
15 22.06 штиль 0 20 км 8/0
[Ci fib]
+33.7 +6.1 18 +32 +35 жарко 1016.1 999.8 +34.5
18 22.06 штиль 0 20 км 6/0
[Ci fib]
+25.1 +10.8 41 +26 +26 жарко 1016.6 999.8
21 22.06 штиль 0 20 км 3/0
[Ci fib]
+21.3 +10.3 49 +23 +23 комфорт 1016.8 999.8
00 23.06 штиль 0 20 км ясно +19.0 +9.7 55 +20 +20 1017.6 1000.5
03 23.06 штиль 0 20 км 8/0
[Ci fib]
+20.5 +10.2 52 +22 +23 комфорт 1017.8 1000.7 +17.7
06 23.06 В 2 20 км ясно +29.0 +8.8 28 +29 +39 жарко 1017.6 1001.0
09 23.06 В 2 20 км 10/0
[Ci sp]
+33.8 +4.7 16 +31 +46 жарко 1016.6 1000.2
12 23.06 В 1 20 км 10/0
[Ci fib]
+34.0 +4.4 16 +31 +43 жарко 1015.4 999.1
15 23.06 В 1 20 км 10/0
[Cc]
+33.2 +5.8 18 +31 +34 жарко 1014.5 998.2 +35.3
18 23.06 штиль 0 20 км 10/0
[Ci fib]
+25.6 +9.9 37 +26 +26 жарко 1014.5 997.8
21 23.06 штиль 0 20 км 10/10 600 м
[Cb cap]
+25.1 +9.1 36 +26 +26 жарко 1014.6 997.9
00 24.06 штиль 0 20 км 10/10 600 м
[Cb cap]
+22.9 +10.5 45 +25 +25 комфорт 1014.8 997.9
03 24.06 штиль 0 20 км 10/10 600 м
[Cb cap]
+22.8 +10.7 46 +25 +25 комфорт 1014.8 997.9 +22.0
06 24.06 В 2 20 км 10/0
[Ac cuf Ci]
+29.1 +8.5 28 +29 +34 жарко 1015.0 998.5
09 24.06 штиль 0 20 км 10/8 600 м
[Cb cap Ci]
+33.4 +10.0 24 +33 +37 жарко 1015.0 998.7
12 24.06 З 1 20 км 10/10 600 м
[Cb cap]
+30.5 +11.9 32 +31 +31 жарко 1015.1 998.6
15 24.06 З 2 20 км 10/10 600 м
[Cb cap]
+28.2 +12.9 39 +30 +30 жарко 1015.7 999.1 +33.7

 

Местоположение метеостанции Чертково (Ростовская область, Россия): широта 49.38 долгота 40.17 высота над уровнем моря 145 м.

В архиве по умолчанию представлена погода в Чертково за последнюю неделю. Архивные данные за месяц целиком и за предыдущие месяцы, начиная с января 2011 года, Вы можете получить, выбрав интересующий диапазон дат из раскрывающегося списка и нажав кнопку "Ввод!".


*Определитесь, кто Вы:
робот инопланетянин человек

Внимание! Время в таблицах - всемирное. Для получения местного времени необходимо прибавить поправку, которая равна 3 ч.

Смотрите также архив погоды в соседних городах и на ближайших метеорологических станциях:

Погода в Беловодске (Луганская область, Украина) (46 км)
Погода в Миллерово (Ростовская область, Россия) (52 км)
Погода в Богучаре (Воронежская область, Россия) (68 км)
Погода в Казанской (Ростовская область, Россия) (85 км)
Погода в Павловск (Воронежская область, Россия) (119 км)
Погода в Каменск-Шахтинском (Ростовская область, Россия) (121 км)
Погода в Боковской (Ростовская область, Россия) (122 км)
Погода в Калаче (Воронежская область, Россия) (132 км)
Погода в Белой Калитве (Ростовская область, Россия) (136 км)
Погода в Сватово (Луганская область, Украина) (145 км)

Пояснения к столбцам:

Ветер - указаны скорость ветра в м/с - средняя за 10 мин, порывы в срок и между сроками (в фигурных скобках) и направление, откуда дует ветер: С - северный, СВ - северо-восточный, В - восточный, ЮВ - юго-восточный, Ю - южный, ЮЗ - юго-западный, З - западный, СЗ - северо-западный.
Видимость - горизонтальная дальность видимости в метрах или километрах. При видимости от 1 до 10 км при отсутствии осадков обычно наблюдается дымка, при ухудшении видимости до 1 км и менее - туман. В сухую погоду видимость может ухудшаться дымом, пылью или мглою.
Явления - указаны атмосферные явления, наблюдавшиеся в срок или в последний час перед сроком; фигурными скобками обозначены явления, наблюдавшиеся между сроками (за 1-3 часа до срока); квадратными скобками обозначены град или гололедные отложения с указанием их диаметра в мм.
Облачность - указаны через наклонную черту общая и нижняя облачность в баллах и высота нижней границы облаков в метрах; квадратными скобками обозначены формы облаков: Ci - перистые, Cs - перисто-слоистые, Cc - перисто-кучевые, Ac - высококучевые, As - высокослоистые, Sc - слоисто-кучевые, Ns - слоисто-дождевые, Cu - кучевые, Cb - кучево-дождевые. Подробнее классификацию облаков см. в Атласе облаков (PDF).
T - Температура воздуха - температура, измеренная на высоте 2 м над землей.
Td - Температура точки росы - температура, при понижении до которой содержащийся в воздухе водяной пар достигнет насыщения.
f - Относительная влажность воздуха - влажноcть воздуха, измеренная на высоте 2 м над землей.
Te - Эффективная температура - температура, которую ощущает одетый по сезону человек в тени. Характеристика душности погоды. При расчете учитывается влияние влажности воздуха и скорости ветра на теплоощущения человека.
Tes - Эффективная температура на солнце - температура, которую ощущает человек, с поправкой на солнечный нагрев. Характеристика знойности погоды. Зависит от высоты солнца над горизонтом, облачности и скорости ветра. Ночью, в пасмурную погоду, а также при ветре 12 м/с и более поправка равна нулю.
P - Атмосферное давление - приведенное к уровню моря атмосферное давление.
Po - Атмосферное давление - измеренное на уровне метеостанции атмосферное давление.
Tmin - Минимальная температура - минимум температуры воздуха на высоте 2 м над землей.
Tmax - Максимальная температура - максимум температуры воздуха на высоте 2 м над землей.
R - Количество осадков - Количество выпавших осадков за период времени, мм. При наведении курсора мыши на число - период времени, за который выпало указанное количество осадков.
R24 - Количество осадков - Количество выпавших осадков за 24 часа, мм.
S - Снежный покров - Высота снежного покрова, см. При наведении курсора мыши на число - состояние снежного покрова и степень покрытия местности в баллах.